Johnstown, PA

10:26 PM EST on November 16, 2019 (GMT -0500)
Johnstown-Cambria County

Weather History for KJST - October, 2019

Change the Weather History Date:

Monday, October 14, 2019

  Actual Average Record
Temperature  
Mean Temperature 52 °F 50 °F  
Max Temperature 59 °F 59 °F 87 °F (1969)
Min Temperature 46 °F 41 °F 22 °F (1957)
Degree Days  
Heating Degree Days 12 15  
Month to date heating degree days 184  
Since 1 July heating degree days 406  
Cooling Degree Days 0 0  
Month to date cooling degree days 0  
Year to date cooling degree days 385  
Growing Degree Days 2 (Base 50)    
Moisture  
Dew Point 36 °F    
Average Humidity 55    
Maximum Humidity 71    
Minimum Humidity 41    
Precipitation  
Precipitation 0.00 in 0.10 in 1.21 in (1893)
Month to date precipitation 1.46  
Year to date precipitation 33.23  
Sea Level Pressure  
Sea Level Pressure 30.02 in    
Wind  
Wind Speed 8 mph ()    
Max Wind Speed 16 mph    
Max Gust Speed 23 mph    
Visibility 9.8 miles    
Events      
T = Trace of Precipitation, MM = Missing Value Source: Averaged Metar Reports

Daily Weather History Graph

Daily Weather History Graph

Search for Another Location

Airport or City:

Astronomy

Oct. 14, 2019 Rise Set
Actual Time 7:24 AM EDT 6:37 PM EDT
Civil Twilight 6:57 AM EDT 7:04 PM EDT
Nautical Twilight 6:25 AM EDT 7:36 PM EDT
Astronomical Twilight 5:54 AM EDT 8:07 PM EDT
Moon 7:26 PM EDT (10/14) 7:54 AM EDT (10/14)
Length of Visible Light 12h 07m
Length of Day
11h 12m
Waxing Gibbous, 99% of the Moon is Illuminated
Oct 14
Waxing Gibbous
Oct 21
Last Quarter
Oct 27
New
Nov 4
First Quarter
Nov 12
Full

Hourly Weather History & Observations

Time (EDT) Temp. Windchill Dew Point Humidity Pressure Visibility Wind Dir Wind Speed Gust Speed Precip Events Conditions
12:54 AM 48.9 °F - 39.9 °F 71% 29.97 in 10.0 mi SW 6.9 mph - N/A   Clear
1:54 AM 50.0 °F - 39.0 °F 66% 29.97 in 10.0 mi SSW 9.2 mph - N/A   Clear
2:54 AM 50.0 °F - 33.1 °F 52% 29.96 in 10.0 mi SW 8.1 mph - N/A   Clear
3:54 AM 48.9 °F - 32.0 °F 52% 29.96 in 10.0 mi SW 8.1 mph - N/A   Clear
4:54 AM 50.0 °F - 33.1 °F 52% 29.96 in 10.0 mi SW 9.2 mph - N/A   Clear
5:54 AM 48.9 °F - 33.1 °F 54% 29.97 in 10.0 mi SW 9.2 mph - N/A   Clear
6:54 AM 46.0 °F 42.5 °F 34.0 °F 63% 30.00 in 10.0 mi SW 6.9 mph - N/A   Clear
7:54 AM 46.0 °F 41.4 °F 34.0 °F 63% 30.00 in 10.0 mi SSW 9.2 mph - N/A   Clear
8:54 AM 46.9 °F - 35.1 °F 63% 30.02 in 10.0 mi SW 8.1 mph - N/A   Clear
9:54 AM 51.1 °F - 37.0 °F 59% 30.03 in 10.0 mi SW 11.5 mph - N/A   Clear
10:54 AM 53.1 °F - 37.9 °F 57% 30.04 in 10.0 mi SW 13.8 mph - N/A   Clear
11:54 AM 55.9 °F - 37.9 °F 51% 30.03 in 10.0 mi WSW 11.5 mph - N/A   Clear
12:54 PM 57.0 °F - 37.0 °F 47% 30.03 in 8.0 mi West 15.0 mph - N/A   Partly Cloudy
1:54 PM 57.0 °F - 36.0 °F 45% 30.01 in 9.0 mi West 13.8 mph 23.0 mph N/A   Partly Cloudy
2:54 PM 57.9 °F - 36.0 °F 44% 30.00 in 7.0 mi West 12.7 mph - N/A   Clear
3:54 PM 59.0 °F - 35.1 °F 41% 30.00 in 10.0 mi West 16.1 mph 23.0 mph N/A   Clear
4:54 PM 57.9 °F - 35.1 °F 42% 30.01 in 10.0 mi West 12.7 mph 20.7 mph N/A   Clear
5:54 PM 57.0 °F - 36.0 °F 45% 30.03 in 10.0 mi West 10.4 mph - N/A   Clear
6:54 PM 53.1 °F - 36.0 °F 52% 30.05 in 10.0 mi West 6.9 mph - N/A   Clear
7:54 PM 51.1 °F - 35.1 °F 54% 30.08 in 10.0 mi WSW 4.6 mph - N/A   Clear
8:54 PM 50.0 °F - 36.0 °F 59% 30.09 in 10.0 mi SSW 3.5 mph - N/A   Clear
9:54 PM 48.0 °F - 36.0 °F 63% 30.10 in 10.0 mi SW 4.6 mph - N/A   Clear
10:54 PM 48.9 °F - 36.0 °F 61% 30.11 in 10.0 mi SW 4.6 mph - N/A   Clear
11:54 PM 46.9 °F - 35.1 °F 63% 30.12 in 10.0 mi WNW 4.6 mph - N/A   Clear